Weather History for Hurlburt Field, FL

Change the Weather History Date:

Sunday, November 3, 2013

  Actual Average Record
Temperature  
Mean Temperature 58 °F -  
Max Temperature 69 °F 73 °F 86 °F (2003)
Min Temperature 46 °F 53 °F 37 °F (1996)
Degree Days  
Heating Degree Days 8    
Growing Degree Days 8 (Base 50)    
Moisture  
Dew Point 40 °F    
Average Humidity 57    
Maximum Humidity 82    
Minimum Humidity 31    
Precipitation  
Precipitation 0.00 in - - ()
Sea Level Pressure  
Sea Level Pressure 30.16 in    
Wind  
Wind Speed 8 mph (NNE)    
Max Wind Speed 12 mph    
Max Gust Speed 18 mph    
Visibility 10 miles    
Events      
Averages and records for this station are not official NWS values.
T = Trace of Precipitation, MM = Missing Value Source: NWS Daily Summary

Daily Weather History Graph

Daily Weather History Graph

Search for Another Location

Airport:

Trip Planner

Search our weather history database for the weather conditions in past years. The results will help you decide how hot, cold, wet, or windy it might be!

Date:

Astronomy

Nov. 03, 2013 Rise Set
Actual Time 6:02 AM CST 4:57 PM CST
Civil Twilight 5:38 AM CST 5:22 PM CST
Nautical Twilight 5:09 AM CST 5:50 PM CST
Astronomical Twilight 4:41 AM CST 6:18 PM CST
Moon 6:05 AM CST (11/3) 5:13 PM CST (11/3)
Length of Visible Light 11h 44m
Length of Day
10h 54m
New Moon, 0% of the Moon is Illuminated
Nov 3
New Moon
Nov 9
First Quarter
Nov 17
Full
Nov 25
Last Quarter
Dec 2
New

Hourly Weather History & Observations

Time (CST) Temp. Dew Point Humidity Pressure Visibility Wind Dir Wind Speed Gust Speed Precip Events Conditions
12:58 AM 54.7 °F 40.3 °F 58% 30.11 in 10.0 mi NNW 6.9 mph - N/A   Clear
1:58 AM 54.0 °F 40.6 °F 61% 30.12 in 10.0 mi North 8.1 mph - N/A   Clear
1:58 AM 48.9 °F 41.2 °F 75% 30.12 in 10.0 mi North 8.1 mph - N/A   Clear
2:58 AM 47.8 °F 40.6 °F 76% 30.13 in 10.0 mi North 6.9 mph - N/A   Clear
3:58 AM 47.3 °F 40.5 °F 77% 30.14 in 10.0 mi North 10.4 mph - N/A   Clear
4:58 AM 46.8 °F 40.3 °F 78% 30.14 in 10.0 mi North 11.5 mph - N/A   Clear
5:58 AM 46.8 °F 40.1 °F 78% 30.15 in 10.0 mi North 10.4 mph - N/A   Clear
10:58 AM 66.7 °F 37.4 °F 34% 30.20 in 10.0 mi ENE 8.1 mph 18.4 mph N/A   Clear
11:58 AM 68.2 °F 37.2 °F 32% 30.17 in 10.0 mi NNE 8.1 mph - N/A   Clear
12:58 PM 69.1 °F 36.9 °F 31% 30.15 in 10.0 mi North 9.2 mph - N/A   Clear
1:58 PM 68.9 °F 37.0 °F 31% 30.14 in 10.0 mi Variable 6.9 mph - N/A   Clear
2:58 PM 68.5 °F 36.5 °F 31% 30.13 in 10.0 mi East 10.4 mph - N/A   Clear
3:58 PM 67.6 °F 36.0 °F 31% 30.15 in 10.0 mi ENE 6.9 mph - N/A   Clear
4:58 PM 62.8 °F 39.2 °F 42% 30.16 in 10.0 mi ENE 4.6 mph - N/A   Clear
5:04 PM 62.6 °F 39.2 °F 42% 30.15 in 10.0 mi NE 4.6 mph - N/A   Light Drizzle
5:17 PM 60.8 °F 39.2 °F 45% 30.15 in 10.0 mi ENE 4.6 mph - N/A   Clear
5:58 PM 59.0 °F 40.6 °F 51% 30.17 in 10.0 mi ENE 4.6 mph - 0.00 in   Clear
6:58 PM 52.2 °F 45.1 °F 77% 30.18 in 10.0 mi NE 4.6 mph - N/A   Clear
7:58 PM 50.7 °F 43.7 °F 77% 30.19 in 10.0 mi NNE 4.6 mph - N/A   Clear
8:58 PM 48.7 °F 43.5 °F 82% 30.21 in 10.0 mi NNE 5.8 mph - N/A   Clear
9:58 PM 48.6 °F 42.3 °F 79% 30.22 in 10.0 mi NNE 5.8 mph - N/A   Clear
10:58 PM 52.2 °F 40.3 °F 64% 30.23 in 10.0 mi NE 6.9 mph - N/A   Clear